Location: Street
(51.1247°N, 2.7429°W)
Time: 06:36:49
(UTC+00:00)

SR - Pass Details

Date: 26 November 2020
Orbit: 575 x 880 km, 66.7° (Epoch: 25 January)

Event Time Altitude Azimuth Distance (km) Brightness Sun altitude
Rises 22:03:44 0° 279° (W) 2,899 - -52.6°
Reaches altitude 10° 22:06:42 10° 300° (WNW) 2,045 - -52.9°
Maximum altitude 22:09:41 17° 341° (NNW) 1,697 - -53.3°
Drops below altitude 10° 22:12:50 10° 21° (NNE) 2,168 - -53.6°
Sets 22:16:07 0° 42° (NE) 3,160 - -54.0°
